EW4049 Weather Reports


Display with metric or nautical units.
time (UTC)temp
F
wind
direction
speed
MPH
gust
MPH
rain 1hr
in
rain 24hr
in
rain mn
in
humidity
%
barometer
mb
20221003090517 45 255 1.0 1.0 0.00 0.01 0.00 77 1029.7
20221003090034 45 265 0.0 1.0 0.00 0.01 0.00 77 1029.8
20221003085524 45 238 0.0 1.0 0.00 0.01 0.00 77 1029.8
20221003085051 45 248 0.0 0.0 0.00 0.01 0.00 75 1029.9
20221003084530 46 248 0.0 2.0 0.00 0.01 0.00 76 1029.8
20221003084037 45 236 0.0 2.0 0.00 0.01 0.00 77 1029.7
20221003083517 45 234 0.0 2.0 0.00 0.01 0.00 76 1029.7
20221003083019 46 241 0.0 2.0 0.00 0.01 0.00 74 1029.6
20221003082526 46 238 0.0 1.0 0.00 0.01 0.00 74 1029.6
20221003082028 46 238 0.0 2.0 0.00 0.01 0.00 74 1029.7
20221003081555 46 252 1.0 2.0 0.00 0.01 0.00 76 1029.8
20221003081014 46 252 0.0 1.0 0.00 0.01 0.00 76 1029.8
20221003080542 46 251 0.0 0.0 0.00 0.01 0.00 75 1029.8
20221003080031 46 252 0.0 0.0 0.00 0.01 0.00 75 1029.9
20221003075526 46 240 0.0 0.0 0.00 0.01 0.00 74 1029.9
20221003075026 46 240 0.0 0.0 0.00 0.01 0.00 74 1029.9
20221003074533 46 234 0.0 0.0 0.00 0.01 0.00 72 1029.9
20221003074014 46 233 0.0 0.0 0.00 0.01 0.00 72 1029.9
20221003073536 46 233 0.0 0.0 0.00 0.01 0.00 76 1029.8
20221003073023 46 233 0.0 0.0 0.00 0.01 0.00 76 1029.9
20221003072526 46 233 0.0 0.0 0.00 0.01 0.00 73 1029.9
20221003072033 47 233 0.0 0.0 0.00 0.01 0.00 70 1030.0
20221003071513 47 252 0.0 0.0 0.00 0.01 0.00 70 1030.0
20221003071021 47 316 0.0 0.0 0.00 0.01 0.00 71 1030.0
20221003070541 47 316 0.0 0.0 0.00 0.01 0.00 70 1030.0
20221003070039 47 318 0.0 0.0 0.00 0.01 0.00 71 1030.1
20221003065527 47 318 0.0 0.0 0.00 0.01 0.00 72 1030.1
20221003065034 47 318 0.0 0.0 0.00 0.01 0.00 72 1030.1
20221003064514 47 318 0.0 0.0 0.00 0.01 0.00 71 1030.2
20221003064012 47 323 0.0 0.0 0.00 0.01 0.00 71 1030.2
20221003063536 47 323 0.0 0.0 0.00 0.01 0.00 72 1030.2
20221003063023 47 327 0.0 2.0 0.00 0.01 0.00 70 1030.2
20221003062523 47 264 0.0 2.0 0.00 0.01 0.00 71 1030.1
20221003062030 47 242 0.0 0.0 0.00 0.01 0.00 73 1030.2
20221003061601 47 243 0.0 2.0 0.00 0.01 0.00 72 1030.3
20221003061019 46 252 0.0 0.0 0.00 0.01 0.00 71 1030.4
20221003060521 46 262 0.0 0.0 0.00 0.01 0.00 72 1030.4
20221003060040 46 255 0.0 0.0 0.00 0.01 0.00 73 1030.5
20221003055529 46 255 0.0 0.0 0.00 0.01 0.00 74 1030.6
20221003055031 46 255 0.0 0.0 0.00 0.01 0.00 74 1030.6
20221003054535 47 255 0.0 0.0 0.00 0.01 0.00 73 1030.4
20221003054016 47 255 0.0 1.0 0.00 0.01 0.00 71 1030.5
20221003053518 47 255 0.0 1.0 0.00 0.01 0.00 70 1030.5
20221003053026 47 244 0.0 1.0 0.00 0.01 0.00 71 1030.5
20221003052547 46 293 0.0 0.0 0.00 0.01 0.00 72 1030.5
20221003052032 46 248 0.0 0.0 0.00 0.01 0.00 72 1030.6
20221003051513 46 248 0.0 0.0 0.00 0.01 0.00 73 1030.6
20221003051014 46 250 0.0 0.0 0.00 0.01 0.00 75 1030.6
20221003050522 46 250 0.0 0.0 0.00 0.01 0.00 74 1030.7
20221003050032 46 250 0.0 2.0 0.00 0.01 0.00 74 1030.7
20221003045529 47 250 1.0 3.0 0.00 0.01 0.00 73 1030.8
20221003045016 46 243 0.0 3.0 0.00 0.01 0.00 72 1030.8
20221003044518 46 263 0.0 1.0 0.00 0.01 0.00 72 1030.7
20221003044019 46 229 0.0 1.0 0.00 0.01 0.00 71 1030.7
20221003043525 47 247 0.0 1.0 0.00 0.01 0.00 71 1030.7
20221003043026 47 248 0.0 1.0 0.00 0.01 0.00 71 1030.8
20221003042519 47 264 0.0 1.0 0.00 0.01 0.00 71 1030.8
20221003042022 47 290 0.0 1.0 0.00 0.01 0.00 71 1030.7
20221003041522 46 240 0.0 1.0 0.00 0.01 0.00 72 1030.8
20221003041029 46 253 0.0 0.0 0.00 0.01 0.00 73 1030.9
20221003040529 46 253 0.0 1.0 0.00 0.01 0.00 73 1030.7
20221003040048 46 214 0.0 3.0 0.00 0.01 0.00 74 1030.8
20221003035516 46 259 1.0 3.0 0.00 0.01 0.00 75 1030.8
20221003035025 46 247 0.0 0.0 0.00 0.01 0.00 75 1030.8
20221003034528 46 249 0.0 0.0 0.00 0.01 0.00 74 1030.9
20221003034050 46 249 0.0 0.0 0.00 0.01 0.00 74 1030.9
20221003033513 46 249 0.0 0.0 0.00 0.01 0.00 74 1030.9
20221003033017 47 249 0.0 0.0 0.00 0.01 0.00 73 1030.9
20221003032521 47 250 0.0 0.0 0.00 0.01 0.00 73 1030.9
20221003032050 47 333 0.0 0.0 0.00 0.01 0.00 73 1030.9
20221003031529 47 348 0.0 0.0 0.00 0.01 0.00 74 1030.8
20221003031038 47 247 0.0 0.0 0.00 0.01 0.00 74 1030.8
20221003030518 48 247 0.0 0.0 0.00 0.01 0.00 73 1030.8
20221003030030 48 247 0.0 0.0 0.00 0.01 0.00 73 1030.7
20221003025527 48 246 0.0 0.0 0.00 0.01 0.00 73 1030.6
20221003025028 48 257 0.0 0.0 0.00 0.01 0.00 73 1030.7
20221003024527 48 250 0.0 0.0 0.00 0.01 0.00 72 1030.6
20221003024014 48 255 0.0 0.0 0.00 0.01 0.00 72 1030.4
20221003023520 49 283 0.0 0.0 0.00 0.01 0.00 72 1030.4
20221003022523 49 250 0.0 0.0 0.00 0.01 0.00 70 1030.2
20221003022050 49 250 0.0 0.0 0.00 0.01 0.00 70 1030.2
20221003021531 50 250 0.0 0.0 0.00 0.01 0.00 71 1030.1
20221003021036 49 250 0.0 0.0 0.00 0.01 0.00 71 1030.1
20221003020516 49 250 0.0 0.0 0.00 0.01 0.00 72 1030.2
20221003020035 49 273 0.0 0.0 0.00 0.01 0.00 71 1030.1
20221003015553 50 15 0.0 0.0 0.00 0.01 0.00 71 1030.2
20221003015030 50 283 0.0 0.0 0.00 0.01 0.00 71 1030.3
20221003014531 50 287 0.0 0.0 0.00 0.01 0.00 70 1030.2
20221003014039 50 248 0.0 0.0 0.00 0.01 0.00 69 1030.1
20221003013518 50 248 0.0 0.0 0.00 0.01 0.00 70 1030.0
20221003013025 50 248 0.0 0.0 0.00 0.01 0.00 70 1030.0
20221003012524 50 243 0.0 0.0 0.00 0.01 0.00 72 1030.0
20221003012026 50 243 0.0 0.0 0.00 0.01 0.00 72 1030.0
20221003011532 50 247 0.0 0.0 0.00 0.01 0.00 71 1030.0
20221003011012 51 254 0.0 0.0 0.00 0.01 0.00 68 1030.0
20221003010538 51 257 0.0 0.0 0.00 0.01 0.00 68 1029.8
20221003010052 51 244 0.0 0.0 0.00 0.01 0.00 69 1029.8
20221003005527 51 243 0.0 0.0 0.00 0.01 0.00 68 1029.8
20221003005026 51 245 0.0 0.0 0.00 0.01 0.00 69 1029.6
20221003004514 51 245 0.0 0.0 0.00 0.01 0.00 69 1029.7
20221003004041 52 248 0.0 0.0 0.00 0.01 0.00 66 1029.8
20221003003520 53 252 0.0 0.0 0.00 0.01 0.00 64 1029.8
20221003003027 53 264 0.0 1.0 0.00 0.01 0.00 63 1029.8
20221003002549 54 258 0.0 2.0 0.00 0.01 0.00 62 1029.6
20221003002036 54 257 1.0 2.0 0.00 0.01 0.00 62 1029.5
20221003001515 54 250 1.0 3.0 0.00 0.01 0.00 63 1029.5
20221003001042 54 259 0.0 3.0 0.00 0.01 0.00 62 1029.5
20221003000522 54 248 0.0 1.0 0.00 0.01 0.00 64 1029.5
20221003000100 55 259 1.0 1.0 0.00 0.01 0.00 62 1029.5
20221002235535 55 259 1.0 2.0 0.00 0.01 0.00 61 1029.5
20221002235017 55 250 1.0 2.0 0.00 0.01 0.00 61 1029.5
20221002234518 55 235 0.0 2.0 0.00 0.01 0.00 62 1029.5
20221002234042 55 248 0.0 0.0 0.00 0.01 0.00 63 1029.4
20221002233527 55 257 0.0 0.0 0.00 0.01 0.00 61 1029.3
20221002233027 56 221 0.0 0.0 0.00 0.01 0.00 59 1029.3
20221002232527 56 220 0.0 0.0 0.00 0.01 0.00 59 1029.4
20221002232037 56 191 0.0 0.0 0.00 0.01 0.00 58 1029.4
20221002231520 57 92 0.0 4.0 0.00 0.01 0.00 57 1029.4
20221002231020 57 45 1.0 5.0 0.00 0.01 0.00 56 1029.4
20221002230546 57 98 2.0 6.0 0.00 0.01 0.00 55 1029.4
20221002230041 57 68 2.0 7.0 0.00 0.01 0.00 55 1029.4
20221002225532 57 124 2.0 7.0 0.00 0.01 0.00 55 1029.4
20221002225013 58 84 3.0 7.0 0.00 0.01 0.00 55 1029.4
20221002224514 58 57 3.0 8.0 0.00 0.01 0.00 55 1029.3
20221002224019 58 74 4.0 8.0 0.00 0.01 0.00 55 1029.3
20221002223519 58 73 3.0 8.0 0.00 0.01 0.00 55 1029.5
20221002223027 58 61 5.0 8.0 0.00 0.01 0.00 54 1029.5
20221002222524 58 55 1.0 5.0 0.00 0.01 0.00 54 1029.5
20221002222028 58 82 3.0 5.0 0.00 0.01 0.00 53 1029.5
20221002221533 58 75 3.0 9.0 0.00 0.01 0.00 54 1029.5
20221002221015 58 43 4.0 9.0 0.00 0.01 0.00 54 1029.5
20221002220516 58 58 3.0 8.0 0.00 0.01 0.00 55 1029.6
20221002220034 58 53 5.0 8.0 0.00 0.01 0.00 55 1029.5
20221002215523 58 67 3.0 6.0 0.00 0.01 0.00 54 1029.5
20221002215030 58 89 4.0 6.0 0.00 0.01 0.00 54 1029.5
20221002214530 58 50 2.0 9.0 0.00 0.01 0.00 55 1029.6
20221002214029 58 78 3.0 9.0 0.00 0.01 0.00 55 1029.6
20221002213536 58 64 4.0 7.0 0.00 0.01 0.00 55 1029.6
20221002213014 58 61 4.0 8.0 0.00 0.01 0.00 54 1029.6
20221002212515 58 71 4.0 9.0 0.00 0.01 0.00 55 1029.5
20221002212023 58 65 4.0 10.0 0.00 0.01 0.00 55 1029.5
20221002211524 58 78 6.0 10.0 0.00 0.01 0.00 55 1029.5
20221002211031 58 57 3.0 11.0 0.00 0.01 0.00 55 1029.5
20221002210530 58 87 7.0 11.0 0.00 0.01 0.00 55 1029.5
20221002210047 58 64 5.0 12.0 0.00 0.01 0.00 55 1029.4
20221002205541 59 25 5.0 13.0 0.00 0.01 0.00 54 1029.3
20221002205021 59 56 7.0 13.0 0.00 0.01 0.00 53 1029.3
20221002204522 60 58 6.0 12.0 0.00 0.01 0.00 50 1029.2
20221002204029 61 73 7.0 12.0 0.00 0.01 0.00 48 1029.3
20221002203512 62 43 3.0 5.0 0.00 0.01 0.00 40 1029.3
20221002203039 62 44 1.0 7.0 0.00 0.01 0.00 42 1029.3
20221002202516 62 103 5.0 8.0 0.00 0.01 0.00 37 1029.2
20221002202016 63 13 2.0 8.0 0.00 0.01 0.00 41 1029.2
20221002201522 63 267 2.0 12.0 0.00 0.01 0.00 42 1029.2
20221002201021 62 223 3.0 12.0 0.00 0.01 0.00 42 1029.1
20221002200527 62 53 1.0 5.0 0.00 0.01 0.00 45 1029.3
20221002200035 61 150 0.0 3.0 0.00 0.01 0.00 48 1029.4
20221002195529 60 68 1.0 6.0 0.00 0.01 0.00 48 1029.5
20221002195027 59 83 4.0 6.0 0.00 0.01 0.00 48 1029.5
20221002194527 59 70 4.0 7.0 0.00 0.01 0.00 49 1029.5
20221002194032 59 57 3.0 7.0 0.00 0.01 0.00 50 1029.7
20221002193557 59 113 1.0 9.0 0.00 0.01 0.00 50 1029.8
20221002193014 59 71 5.0 10.0 0.00 0.01 0.00 51 1029.8
20221002192515 59 72 7.0 10.0 0.00 0.01 0.00 51 1029.8
20221002192015 59 81 1.0 9.0 0.00 0.01 0.00 53 1029.9
20221002191523 59 56 1.0 8.0 0.00 0.01 0.00 54 1029.9
20221002191022 59 84 4.0 8.0 0.00 0.01 0.00 52 1030.0
20221002190529 59 61 3.0 8.0 0.00 0.01 0.00 53 1029.9
20221002190038 59 68 2.0 8.0 0.00 0.01 0.00 56 1030.1
20221002185533 58 42 3.0 9.0 0.00 0.01 0.00 55 1030.1
20221002185034 58 65 4.0 9.0 0.00 0.01 0.00 56 1030.1
20221002184512 58 71 0.0 4.0 0.00 0.01 0.00 56 1030.1
20221002184020 57 48 1.0 4.0 0.00 0.01 0.00 56 1030.1
20221002183522 57 86 2.0 4.0 0.00 0.01 0.00 57 1030.1
20221002183029 56 81 0.0 4.0 0.00 0.01 0.00 59 1030.3
20221002182527 56 73 2.0 6.0 0.00 0.01 0.00 58 1030.4
20221002182026 56 233 1.0 5.0 0.00 0.01 0.00 59 1030.4
20221002181534 56 70 2.0 4.0 0.00 0.01 0.00 58 1030.5
20221002181013 56 53 2.0 5.0 0.00 0.01 0.00 58 1030.5
20221002180512 57 36 1.0 4.0 0.00 0.01 0.00 58 1030.5
20221002180030 57 51 1.0 3.0 0.00 0.01 0.00 59 1030.7
20221002175517 57 2 0.0 0.0 0.00 0.01 0.00 61 1030.6
20221002175022 56 16 0.0 0.0 0.00 0.01 0.00 61 1030.7
20221002174520 55 33 0.0 2.0 0.00 0.01 0.00 62 1030.8
20221002174018 55 6 0.0 3.0 0.00 0.01 0.00 61 1030.9
20221002173524 55 86 2.0 3.0 0.00 0.01 0.00 62 1030.9
20221002173049 54 44 0.0 6.0 0.00 0.01 0.00 65 1031.0
20221002172553 53 18 2.0 6.0 0.00 0.01 0.00 64 1031.0
20221002172052 53 25 2.0 4.0 0.00 0.01 0.00 66 1031.2
20221002171517 53 50 0.0 2.0 0.00 0.01 0.00 66 1031.2
20221002171015 52 283 0.0 1.0 0.00 0.01 0.00 67 1031.3
20221002170514 52 283 0.0 1.0 0.00 0.01 0.00 67 1031.3
20221002170029 52 15 0.0 1.0 0.00 0.01 0.00 68 1031.2
20221002165518 52 332 0.0 2.0 0.00 0.01 0.00 67 1031.1
20221002165024 52 286 0.0 2.0 0.00 0.01 0.00 68 1031.2
20221002164524 52 307 0.0 4.0 0.00 0.01 0.00 69 1031.2
20221002164049 52 350 1.0 4.0 0.00 0.01 0.00 70 1031.1
20221002163526 51 309 1.0 4.0 0.00 0.01 0.00 70 1031.1
20221002163030 51 356 0.0 4.0 0.00 0.01 0.00 73 1031.2
20221002162529 50 27 0.0 3.0 0.00 0.01 0.00 73 1031.3
20221002162028 50 352 0.0 1.0 0.00 0.01 0.00 74 1031.4
20221002161516 49 287 0.0 1.0 0.00 0.01 0.00 75 1031.4
20221002161012 49 357 0.0 1.0 0.00 0.01 0.00 76 1031.5
20221002160518 49 305 0.0 2.0 0.00 0.01 0.00 77 1031.4
20221002160030 48 39 0.0 3.0 0.00 0.01 0.00 76 1031.4
20221002155525 48 16 0.0 3.0 0.00 0.01 0.00 77 1031.5
20221002155026 48 34 0.0 3.0 0.00 0.01 0.00 77 1031.5
20221002154525 48 16 1.0 2.0 0.00 0.01 0.00 76 1031.5
20221002154013 49 18 1.0 2.0 0.00 0.01 0.00 75 1031.5
20221002153559 49 28 1.0 2.0 0.00 0.01 0.00 74 1031.5
20221002153017 49 233 0.0 4.0 0.00 0.01 0.00 74 1031.6
20221002152535 49 233 0.0 5.0 0.00 0.01 0.00 73 1031.5
20221002152021 49 238 1.0 3.0 0.00 0.01 0.00 71 1031.6
20221002151519 49 238 0.0 2.0 0.00 0.01 0.00 73 1031.6
20221002151025 49 234 1.0 2.0 0.00 0.01 0.00 73 1031.6
20221002150544 49 151 0.0 3.0 0.00 0.01 0.00 74 1031.6
20221002150038 49 244 1.0 3.0 0.00 0.01 0.00 72 1031.6
20221002145528 49 258 0.0 5.0 0.00 0.01 0.00 70 1031.5
20221002145012 50 230 0.0 5.0 0.00 0.01 0.00 69 1031.4
20221002144538 50 278 0.0 4.0 0.00 0.01 0.00 68 1031.5
20221002144015 50 244 1.0 4.0 0.00 0.01 0.00 65 1031.6
20221002143515 49 317 0.0 8.0 0.00 0.01 0.00 67 1031.5
20221002143020 49 350 0.0 8.0 0.00 0.01 0.00 71 1031.3
20221002142533 49 229 1.0 4.0 0.00 0.01 0.00 69 1031.2
20221002142019 49 250 0.0 6.0 0.00 0.01 0.00 69 1031.4
20221002141519 49 252 1.0 6.0 0.00 0.01 0.00 69 1031.2
20221002141044 48 254 1.0 5.0 0.00 0.01 0.00 71 1030.9
20221002140522 47 68 1.0 5.0 0.00 0.01 0.00 72 1030.7
20221002140058 46 76 1.0 3.0 0.00 0.01 0.00 74 1030.7
20221002135532 46 299 1.0 3.0 0.00 0.01 0.00 75 1030.9
20221002135029 45 238 0.0 3.0 0.00 0.01 0.00 77 1030.8
20221002134535 45 251 0.0 4.0 0.00 0.01 0.00 77 1030.7
20221002134032 44 243 2.0 4.0 0.00 0.01 0.01 78 1030.8
20221002133528 44 257 0.0 0.0 0.00 0.01 0.01 78 1030.5
20221002133035 44 259 0.0 1.0 0.00 0.01 0.01 78 1030.4
20221002132534 44 242 0.0 1.0 0.00 0.01 0.01 78 1030.3
20221002132020 44 29 0.0 1.0 0.00 0.01 0.01 79 1030.3
20221002131520 44 263 0.0 1.0 0.00 0.01 0.01 79 1030.2
20221002131022 44 258 0.0 1.0 0.00 0.01 0.01 81 1030.2
20221002130530 43 297 0.0 0.0 0.00 0.01 0.01 83 1030.1
20221002130040 42 63 0.0 1.0 0.00 0.01 0.01 84 1030.1
20221002125516 42 63 0.0 1.0 0.00 0.01 0.01 84 1029.9
20221002125035 42 243 0.0 2.0 0.00 0.01 0.01 83 1029.7
20221002124519 42 243 1.0 2.0 0.00 0.01 0.01 83 1029.6
20221002124028 42 249 0.0 3.0 0.00 0.01 0.01 83 1029.5
20221002123530 42 318 0.0 3.0 0.00 0.01 0.01 83 1029.5
20221002123013 42 250 0.0 2.0 0.00 0.01 0.01 84 1029.5
20221002122521 42 242 0.0 2.0 0.00 0.01 0.01 85 1029.4
20221002122020 42 250 0.0 1.0 0.00 0.01 0.01 84 1029.4
20221002121521 42 290 0.0 2.0 0.00 0.01 0.01 84 1029.2
20221002121028 42 258 0.0 2.0 0.00 0.01 0.01 84 1029.3
20221002120558 42 319 1.0 3.0 0.00 0.01 0.01 84 1029.2
20221002120025 42 229 1.0 3.0 0.00 0.01 0.01 84 1029.3
20221002115514 42 352 1.0 3.0 0.00 0.01 0.01 84 1029.3
20221002115024 42 53 0.0 2.0 0.00 0.01 0.01 84 1029.2
20221002114522 42 232 1.0 2.0 0.00 0.01 0.01 84 1029.2
20221002114050 42 250 0.0 1.0 0.00 0.01 0.01 84 1029.1
20221002113529 42 243 0.0 1.0 0.00 0.01 0.01 84 1029.1
20221002113033 42 11 0.0 1.0 0.00 0.01 0.01 85 1029.2
20221002112512 42 252 0.0 1.0 0.00 0.01 0.01 85 1029.3
20221002112033 42 243 0.0 1.0 0.00 0.01 0.01 85 1029.3
20221002111518 42 237 0.0 2.0 0.00 0.01 0.01 84 1029.4
20221002111018 42 297 1.0 2.0 0.00 0.01 0.01 84 1029.3
20221002110524 42 260 0.0 2.0 0.00 0.01 0.01 84 1029.3
20221002110040 42 246 1.0 3.0 0.00 0.01 0.01 84 1029.2
20221002105530 42 250 1.0 3.0 0.00 0.01 0.01 84 1029.2
20221002105011 42 293 0.0 2.0 0.00 0.01 0.01 84 1029.3
20221002104537 42 295 1.0 2.0 0.00 0.01 0.01 84 1029.3
20221002104015 42 239 1.0 2.0 0.00 0.01 0.01 84 1029.3
20221002103523 42 242 0.0 3.0 0.00 0.01 0.01 84 1029.2
20221002103024 42 259 1.0 3.0 0.00 0.01 0.01 83 1029.2
20221002102533 43 84 0.0 2.0 0.00 0.01 0.01 82 1029.1
20221002102012 43 250 0.0 2.0 0.01 0.01 0.01 82 1029.1
20221002101514 43 205 0.0 1.0 0.01 0.01 0.01 81 1029.0
20221002101021 43 150 0.0 1.0 0.01 0.01 0.01 83 1029.1
20221002100523 43 266 0.0 2.0 0.01 0.01 0.01 83 1029.2
20221002100041 43 256 1.0 4.0 0.01 0.01 0.01 82 1029.2
20221002095531 44 280 0.0 4.0 0.01 0.01 0.01 79 1029.3
20221002095038 44 252 0.0 3.0 0.01 0.01 0.01 81 1029.4